Theta_e
293 293 293 293 294 297 302 301 297 302 304 302 300 304 304 304 303 304 305 305 306 306 307 307 307 308 311 310 311 312 310 313 313 311 310 310 311 311 311 314 317 320 318 317
291 291 292 292 293 295 300 296 297 301 301 303 302 302 303 303 304 304 305 306 305 305 306 306 306 308 309 309 310 310 309 310 308 307 309 309 310 311 310 310 312 314 315 315
292 291 291 292 293 294 295 295 295 298 300 297 299 301 300 302 302 303 304 304 305 305 305 306 306 306 308 308 309 308 308 309 308 308 307 307 309 309 309 310 311 311 311 311
294 291 291 291 292 293 293 292 292 295 298 298 298 299 298 300 300 301 302 301 304 304 305 305 305 305 305 307 308 308 308 307 306 308 308 309 308 308 308 309 309 310 309 309
294 292 291 291 291 292 292 292 293 294 294 295 298 297 296 298 298 298 299 300 302 303 303 303 304 303 303 303 305 307 306 307 305 306 307 307 307 308 308 308 309 308 309 310
291 291 290 291 291 291 292 291 294 293 292 295 297 297 296 297 297 297 297 298 298 298 298 298 295 295 296 297 301 303 304 305 307 307 306 307 309 308 308 308 308 309 310 310
291 290 291 292 291 291 291 291 292 291 292 294 295 295 296 296 297 296 297 295 297 297 296 295 293 295 297 297 299 301 302 304 305 307 307 309 306 305 307 307 308 308 309 308
292 290 290 292 293 292 292 292 292 292 289 293 294 294 294 294 294 294 294 294 295 294 292 296 295 296 300 301 300 302 304 303 304 307 308 306 306 306 307 308 306 307 308 308
292 290 290 293 292 292 293 292 292 291 290 291 292 293 293 293 292 292 292 292 292 293 296 296 295 294 298 296 305 304 304 305 305 306 307 307 306 305 307 307 308 305 307 308
292 290 291 291 292 293 293 292 292 292 292 291 291 292 292 292 292 292 292 294 295 295 295 297 297 296 297 297 300 301 305 305 306 306 307 306 304 306 305 307 306 305 306 305
292 290 290 290 291 291 292 293 293 292 292 292 292 292 292 292 292 293 292 293 292 294 296 297 298 298 297 298 298 297 299 304 307 307 308 308 303 304 306 307 303 304 304 304
292 291 291 292 292 290 290 291 292 292 292 292 291 292 292 292 292 292 292 292 291 292 295 295 295 297 295 298 299 302 302 304 304 305 307 304 301 303 305 304 304 303 303 304
293 292 293 294 294 293 290 291 292 292 292 292 291 291 291 290 291 292 292 292 292 292 292 293 295 295 295 296 299 298 301 303 304 303 304 303 301 302 303 304 303 302 304 304
295 294 295 294 294 293 292 292 292 292 292 292 292 292 292 291 291 291 291 291 291 291 292 293 294 293 294 295 297 298 298 299 304 304 303 301 302 303 304 302 302 303 304 305
295 295 294 294 293 293 292 291 292 292 292 292 292 292 292 292 292 292 292 291 291 291 292 293 293 293 293 295 295 295 296 299 304 306 304 303 302 303 302 302 303 302 302 303
293 292 292 291 290 289 290 292 291 290 289 291 292 292 293 293 292 293 293 291 291 291 292 293 293 293 295 296 299 300 301 301 301 302 302 302 300 301 303 303 302 302 302 303
290 290 289 288 290 291 292 293 294 294 293 292 294 295 294 295 294 294 292 293 292 292 293 294 294 295 294 296 296 299 300 302 302 302 300 300 301 302 303 303 302 301 302 302
288 288 289 291 293 294 293 293 294 294 293 294 295 296 296 296 296 295 294 294 293 293 294 295 295 295 296 298 299 300 300 302 302 301 300 301 302 302 303 302 302 302 302 302
288 291 294 294 295 294 294 295 295 294 294 295 295 296 297 296 297 296 296 296 296 295 295 297 297 298 300 299 300 299 299 299 299 299 298 299 299 299 300 301 301 301 301 300
292 294 294 294 295 295 294 295 294 295 295 294 295 293 296 296 295 296 297 296 298 298 298 296 298 299 298 299 298 298 299 299 298 298 299 300 300 301 301 301 301 301 301 299
293 294 294 294 295 294 295 294 294 293 293 293 293 293 295 295 296 296 294 297 297 298 298 298 298 298 297 297 298 297 298 298 298 297 299 300 300 301 301 300 300 299 299 298
294 294 294 294 294 293 293 291 292 293 294 293 294 293 294 295 296 295 295 297 296 297 295 298 297 296 296 298 297 298 299 298 297 297 300 300 301 301 300 299 299 298 298 297
294 294 294 293 291 287 289 286 293 292 293 294 295 295 294 294 295 295 295 295 295 294 296 297 297 295 297 297 297 298 298 297 298 300 300 301 300 300 298 298 297 297 296 295
293 292 289 289 285 290 290 293 291 295 295 296 296 296 295 294 294 294 295 294 296 298 298 298 298 297 296 298 299 299 298 299 300 300 300 299 299 297 296 295 295 295 294 293
292 292 290 291 291 293 295 295 295 295 295 295 296 297 296 296 294 294 295 297 298 298 298 296 295 297 298 298 298 298 298 298 299 297 297 296 295 295 294 294 293 292 292 291
293 292 294 293 294 292 294 295 294 295 295 295 296 298 299 298 297 297 297 296 296 296 294 295 297 296 297 297 296 295 296 296 295 294 294 294 293 293 293 292 291 291 290 290
292 293 294 294 294 295 295 294 295 295 296 298 298 298 298 296 297 297 296 296 295 291 293 295 296 297 297 296 295 294 295 294 294 293 292 292 291 291 291 290 289 289 289 288
Wind_Speed
17 17 18 18 18 20 22 17 3 12 14 5 3 3 6 3 3 2 3 3 2 2 2 1 1 1 2 2 2 3 4 1 4 7 13 12 12 11 5 3 3 4 6 11
15 16 18 17 19 21 21 10 6 13 13 4 3 2 4 3 2 3 3 3 3 4 1 2 2 2 4 4 3 3 1 1 5 12 4 3 5 3 2 3 4 8 9 8
15 15 16 16 18 20 17 7 3 2 2 4 4 5 3 4 2 2 5 5 2 2 4 3 4 1 3 3 4 1 1 5 7 11 15 4 6 7 5 3 4 7 10 15
13 14 15 15 17 19 12 4 2 4 4 3 4 3 4 6 6 3 4 1 6 5 4 4 7 6 4 4 5 3 3 6 5 11 16 11 11 12 16 16 19 12 22 17
13 12 13 13 14 15 6 4 5 5 3 6 7 4 3 7 2 4 2 4 4 4 5 4 4 5 3 4 1 0 2 3 5 8 13 15 13 19 22 19 23 19 22 23
12 11 11 11 12 13 5 6 9 4 3 3 5 4 4 7 6 4 1 1 1 1 1 1 6 12 12 14 10 7 5 3 3 9 5 7 10 24 19 17 17 13 11 15
11 10 11 10 11 12 5 9 8 4 2 3 3 4 9 6 8 2 4 2 4 4 4 17 16 14 19 22 21 22 14 12 8 10 7 11 10 3 10 13 19 14 18 16
10 11 11 11 11 10 7 7 4 4 2 3 4 6 4 4 4 3 5 8 12 13 8 1 4 3 3 11 19 19 19 14 8 8 11 14 18 9 7 7 18 7 15 16
11 10 13 12 12 10 8 7 7 4 7 4 4 6 8 4 3 2 5 13 10 6 2 2 3 4 4 4 4 6 16 17 11 12 13 16 8 4 8 7 10 4 5 8
11 12 13 12 12 11 10 8 10 6 2 4 11 4 5 7 4 2 3 2 2 12 3 4 5 5 4 6 7 6 4 7 18 17 15 12 7 10 10 6 5 4 2 4
13 12 12 11 11 13 12 10 9 12 5 10 12 17 13 8 9 4 5 1 2 2 5 4 4 5 6 8 10 10 11 7 4 5 9 16 9 6 9 4 6 6 5 10
14 13 12 10 9 9 12 15 14 14 17 12 7 17 25 28 24 11 13 7 5 6 3 1 2 3 3 5 8 5 11 10 4 7 5 3 9 5 13 8 4 3 7 12
18 15 15 14 12 12 15 16 15 15 19 25 32 28 30 33 32 28 16 12 19 16 11 4 3 7 3 5 6 8 8 8 7 6 14 16 17 12 15 8 7 7 8 10
18 16 17 18 14 14 16 19 20 21 9 6 13 16 25 25 26 35 39 37 23 22 21 13 5 5 7 6 7 9 8 9 12 10 10 9 15 17 12 8 7 6 9 11
18 16 15 15 15 15 16 21 23 25 24 5 7 13 18 15 21 28 32 36 33 19 12 7 7 10 9 12 8 14 13 17 8 8 11 9 5 13 8 6 4 4 9 12
14 14 14 14 15 14 12 15 26 35 35 11 4 14 16 19 27 35 32 38 34 29 15 9 12 17 8 5 9 12 21 21 20 5 18 16 8 9 8 8 6 6 9 12
9 10 12 13 15 19 25 10 4 6 32 7 4 5 6 6 22 34 36 37 26 20 15 10 11 13 19 7 17 11 18 20 19 20 11 7 11 6 10 10 8 9 11 12
8 9 13 15 14 18 15 19 20 11 20 7 3 4 4 8 5 5 21 17 23 19 10 9 13 12 11 6 9 23 21 24 23 20 15 8 6 10 11 12 12 12 10 8
7 11 5 8 4 5 3 5 6 20 9 5 4 3 3 4 4 3 5 7 4 14 7 7 11 7 7 11 19 24 29 20 8 9 10 12 13 13 14 15 14 12 9 9
5 2 2 1 1 2 2 0 4 7 4 5 3 3 3 4 2 1 1 1 3 4 4 11 5 4 18 24 18 14 11 17 8 7 7 10 11 12 12 12 11 9 7 11
5 3 2 3 4 4 3 2 3 3 2 6 5 6 2 3 1 0 2 2 2 4 3 2 3 4 3 5 9 16 23 21 15 9 8 7 6 11 12 11 9 8 10 11
3 2 3 3 4 3 2 2 1 3 3 3 2 3 4 2 1 1 2 0 0 1 2 2 3 3 2 8 9 9 12 13 17 18 12 8 6 7 8 10 9 10 12 11
2 3 2 3 2 1 5 5 3 2 3 3 3 2 2 1 1 0 2 2 2 2 1 3 4 2 5 2 4 5 5 10 13 15 13 8 9 9 10 11 10 12 12 10
3 3 3 4 2 4 4 2 2 1 4 4 4 2 1 0 1 0 0 1 2 1 2 3 1 2 2 7 10 13 9 11 14 12 10 10 11 14 12 10 11 12 13 11
3 4 4 6 8 5 4 6 5 7 7 8 3 4 6 2 2 2 1 2 3 4 3 2 1 5 8 9 8 7 5 5 7 11 12 14 13 13 15 16 14 12 10 9
3 5 4 4 0 3 4 9 13 8 7 4 5 3 3 4 3 4 6 3 4 3 2 3 5 11 12 10 10 7 3 3 8 13 13 14 13 14 15 14 11 11 10 9
3 5 11 9 6 8 8 6 9 6 5 3 3 5 4 2 2 3 4 4 2 4 4 5 12 16 12 11 9 9 3 7 12 13 13 14 13 13 12 9 11 10 11 11
Wind_Direction
184 186 185 184 177 173 173 155 115 180 153 123 169 166 147 157 28 45 39 85 89 113 112 29 225 175 79 259 312 41 25 130 291 279 282 293 258 299 327 287 263 263 278 262
165 171 176 173 172 170 169 123 104 158 180 160 150 117 114 120 64 41 57 60 43 23 83 294 227 222 152 83 66 105 86 77 317 306 154 50 60 9 146 212 244 246 265 286
158 159 165 166 162 165 161 132 105 136 155 116 146 133 120 126 168 166 172 186 137 272 279 236 272 317 23 119 137 195 290 218 217 253 269 261 268 259 258 206 252 283 266 283
159 158 161 166 165 165 159 128 141 152 174 189 111 97 107 151 165 217 190 45 192 188 223 221 245 267 280 215 287 193 218 239 230 245 258 260 254 256 260 246 257 253 271 271
161 163 165 168 169 174 159 112 133 124 102 126 129 133 181 180 149 159 207 187 136 184 222 262 294 356 310 284 323 249 319 258 206 264 253 252 246 250 256 261 259 262 261 266
169 170 169 171 176 176 141 115 125 130 2 106 141 178 169 184 160 226 232 110 142 221 256 52 296 285 260 251 261 267 274 267 245 263 230 234 246 245 245 245 244 227 228 256
181 182 178 176 179 188 166 153 137 102 136 152 190 145 181 171 186 156 157 89 134 181 276 305 299 271 246 244 242 227 239 234 251 265 248 239 252 233 227 228 247 241 257 273
184 186 184 180 183 192 193 159 150 125 120 172 166 162 149 165 224 253 238 245 253 271 302 261 327 293 270 241 232 223 213 223 241 247 241 272 285 250 211 197 278 238 254 259
189 188 181 179 185 196 198 203 200 146 114 228 147 181 201 205 207 261 246 273 272 205 143 132 217 241 271 278 284 232 216 217 220 242 249 250 264 191 168 136 275 223 223 262
189 183 178 182 186 200 209 216 216 195 135 233 175 182 179 173 167 180 265 265 157 177 157 196 218 248 265 252 248 246 214 220 222 230 240 255 202 156 155 199 255 159 180 290
194 192 193 194 196 206 220 218 229 215 229 252 231 232 215 184 182 169 167 78 225 143 201 209 210 228 229 243 243 258 252 242 249 258 236 238 175 126 202 191 188 176 293 308
206 205 207 209 215 224 228 234 229 232 238 247 232 244 250 243 239 225 212 206 170 187 180 183 297 291 295 289 278 253 244 225 270 209 228 253 218 207 203 183 186 265 311 320
206 216 218 218 222 237 234 235 234 232 241 260 253 253 268 248 239 235 225 224 222 230 238 208 239 247 252 256 258 302 264 214 223 237 244 241 241 229 226 229 275 314 316 316
208 220 227 233 237 249 234 232 235 230 235 258 269 280 251 265 251 241 242 239 238 237 229 229 229 235 232 259 287 281 269 317 243 240 262 299 247 226 222 245 285 281 302 313
217 222 231 241 241 241 244 247 242 234 223 258 284 279 251 261 247 243 241 237 228 226 216 213 227 242 252 255 268 259 252 253 237 238 230 212 239 214 219 239 243 294 288 285
213 218 225 234 240 244 256 271 259 241 235 253 249 277 272 253 244 243 235 227 221 213 215 223 229 231 215 256 261 261 248 226 231 288 274 218 198 195 201 194 216 260 281 283
212 225 236 247 249 248 238 227 231 242 222 215 260 266 258 258 236 238 218 217 205 203 210 211 219 196 207 242 252 274 271 218 228 228 221 209 208 216 223 224 227 256 267 260
227 250 271 273 258 262 251 259 235 261 183 186 250 264 280 272 253 196 188 181 189 199 198 198 209 224 226 260 264 248 233 227 232 224 225 232 187 207 214 222 240 243 233 227
264 287 241 293 256 195 234 341 320 214 182 199 220 245 279 316 316 24 145 148 159 170 201 198 170 192 220 229 231 233 218 204 191 203 219 220 226 231 233 232 222 214 209 199
257 151 164 155 169 180 293 264 158 201 235 238 252 217 265 334 334 319 233 72 137 184 168 150 210 252 244 251 261 252 235 219 215 214 218 210 203 202 203 202 217 201 199 197
129 156 158 154 184 231 230 225 203 190 246 218 237 219 250 253 266 245 222 181 177 189 164 204 203 247 255 245 277 252 246 247 245 229 253 226 219 192 189 190 187 184 182 174
161 211 252 211 194 186 206 221 251 216 246 211 213 258 226 289 300 306 14 46 299 126 161 189 254 250 315 324 311 285 242 223 220 220 217 204 199 179 177 178 166 166 164 158
233 191 196 184 191 54 193 211 212 227 212 224 210 233 210 294 327 20 348 63 223 127 160 233 233 247 295 13 36 55 143 179 180 176 179 186 170 166 183 172 162 157 156 158
218 176 264 185 228 239 202 202 189 162 230 253 222 269 212 228 282 296 94 255 252 235 234 246 249 262 125 97 80 75 94 144 152 162 163 160 157 165 160 155 146 149 146 143
205 198 234 219 233 255 269 261 257 261 253 219 214 219 172 156 262 220 241 217 234 232 239 251 248 183 145 123 113 118 112 100 144 148 148 148 156 159 146 138 134 136 141 153
224 225 239 220 31 289 269 263 263 277 267 244 213 211 197 180 200 184 204 202 227 240 222 218 189 187 175 161 157 168 156 228 166 146 146 145 147 150 145 138 146 143 141 147
230 246 230 241 255 249 254 241 256 265 246 214 198 188 200 118 194 219 188 212 213 190 186 205 195 191 190 176 175 162 139 169 152 146 143 143 140 141 148 157 150 156 155 147